OPTUS 10

Last updated on Aug. 4, 2020, 5:33 a.m. UTC

1 40146U 14054A   20216.89284007 -.00000166  00000-0  00000-0 0  9992
2 40146   0.0808  94.9553 0004124  49.7344 285.6296  1.00270428 21522
UTC
Height (km)
Latitude
Longitude
Inclination
Orbital Period
UTC large
Height (km)
Speed (km/s)
/
Latitude / Longitude
Inclination (degrees)
Orbital Period (minutes)
Azimuth
Elevation
Range (km)
Doppler Factor
iOS Compass Heading
iOS Angle

Next 30 passes for location: Hong Kong

Rise time Rise Azimuth (degrees) Set time Set Azimuth (degrees) Duration Max altitude (degrees)

No matching passes for this satellites